Oklahoma City, OK

8:07 AM CST on January 22, 2017 (GMT -0600)
Tinker Air Force Base

Weather History for KTIK - November, 2012

Change the Weather History Date:

Wednesday, November 21, 2012

  Actual Average Record
Temperature  
Mean Temperature 62 °F -  
Max Temperature 75 °F 56 °F 75 °F (2012)
Min Temperature 49 °F 37 °F 24 °F (2008)
Degree Days  
Heating Degree Days 3    
Growing Degree Days 12 (Base 50)    
Moisture  
Dew Point 46 °F    
Average Humidity 57    
Maximum Humidity 82    
Minimum Humidity 32    
Precipitation  
Precipitation 0.00 in - - ()
Sea Level Pressure  
Sea Level Pressure 30.15 in    
Wind  
Wind Speed 10 mph (SSE)    
Max Wind Speed 18 mph    
Max Gust Speed 24 mph    
Visibility 10 miles    
Events      
Averages and records for this station are not official NWS values.
T = Trace of Precipitation, MM = Missing Value Source: NWS Daily Summary

Daily Weather History Graph

Daily Weather History Graph

Search for Another Location

Airport or City:

Trip Planner

Search our weather history database for the weather conditions in past years. The results will help you decide how hot, cold, wet, or windy it might be!

Date:

Astronomy

Nov. 21, 2012 Rise Set
Actual Time 7:11 AM CST 5:19 PM CST
Civil Twilight 6:43 AM CST 5:47 PM CST
Nautical Twilight 6:12 AM CST 6:18 PM CST
Astronomical Twilight 5:42 AM CST 6:48 PM CST
Moon 1:24 PM CST (11/21) 12:44 AM CST (11/21)
Length of Visible Light 11h 03m
Length of Day
10h 08m
First Quarter, 62% of the Moon is Illuminated
Nov 21
First Quarter
Nov 28
Full
Dec 6
Last Quarter
Dec 13
New
Dec 19
First Quarter

Hourly Weather History & Observations

Time (CST) Temp. Dew Point Humidity Pressure Visibility Wind Dir Wind Speed Gust Speed Precip Events Conditions
12:55 AM 56.3 °F 41.7 °F 58% 30.20 in 10.0 mi ESE 5.8 mph - N/A   Clear
1:55 AM 54.0 °F 41.2 °F 62% 30.20 in 10.0 mi SE 8.1 mph - N/A   Clear
2:55 AM 53.1 °F 42.8 °F 68% 30.19 in 10.0 mi SE 8.1 mph - N/A   Clear
3:55 AM 52.2 °F 43.5 °F 72% 30.19 in 10.0 mi SE 8.1 mph - N/A   Clear
4:55 AM 51.1 °F 43.5 °F 75% 30.20 in 10.0 mi SE 8.1 mph - N/A   Clear
5:55 AM 50.2 °F 44.2 °F 80% 30.22 in 10.0 mi SE 10.4 mph - N/A   Clear
6:55 AM 49.8 °F 44.4 °F 82% 30.23 in 10.0 mi SE 10.4 mph - N/A   Clear
7:55 AM 50.7 °F 45.0 °F 81% 30.25 in 10.0 mi SE 8.1 mph - N/A   Clear
8:55 AM 57.4 °F 45.7 °F 65% 30.25 in 10.0 mi South 9.2 mph - N/A   Clear
9:55 AM 61.2 °F 48.2 °F 62% 30.25 in 10.0 mi South 11.5 mph - N/A   Clear
10:55 AM 68.5 °F 50.5 °F 53% 30.23 in 10.0 mi South 11.5 mph - N/A   Clear
11:55 AM 71.2 °F 50.5 °F 48% 30.20 in 10.0 mi SSW 13.8 mph - N/A   Clear
12:55 PM 72.7 °F 48.4 °F 42% 30.16 in 10.0 mi South 18.4 mph - N/A   Clear
1:55 PM 75.6 °F 44.1 °F 32% 30.13 in 10.0 mi South 18.4 mph 23.0 mph N/A   Clear
2:55 PM 75.2 °F 46.4 °F 36% 30.11 in 10.0 mi South 17.3 mph 24.2 mph N/A   Clear
3:55 PM 73.8 °F 47.5 °F 39% 30.10 in 10.0 mi South 18.4 mph - N/A   Clear
4:55 PM 69.6 °F 48.6 °F 47% 30.09 in 10.0 mi SSE 10.4 mph - N/A   Clear
5:55 PM 66.4 °F 47.8 °F 51% 30.08 in 10.0 mi SSE 8.1 mph - N/A   Clear
6:55 PM 64.8 °F 47.1 °F 53% 30.09 in 10.0 mi SSE 10.4 mph - N/A   Clear
7:55 PM 66.0 °F 45.5 °F 48% 30.08 in 10.0 mi South 15.0 mph - N/A   Clear
8:55 PM 65.1 °F 44.6 °F 47% 30.07 in 10.0 mi South 15.0 mph - N/A   Clear
9:55 PM 64.2 °F 45.1 °F 50% 30.07 in 10.0 mi South 15.0 mph - N/A   Clear
10:55 PM 62.8 °F 45.1 °F 53% 30.04 in 10.0 mi South 13.8 mph - N/A   Clear
11:55 PM 61.5 °F 45.5 °F 56% 30.02 in 10.0 mi South 16.1 mph - N/A   Clear